FW2330 Weather Reports


time (UTC)temp
C
wind
direction
speed
KPH
gust
KPH
rain 1hr
cm
rain 24hr
cm
rain mn
cm
humidity
%
barometer
mb
20260509134624 27 217 0.0 0.0 0.00 0.00 0.00 75 1009.4
20260509133056 27 217 0.0 3.2 0.00 0.00 0.00 74 1009.4
20260509131553 27 221 0.0 0.0 0.00 0.00 0.00 75 1009.3
20260509130050 27 221 0.0 3.2 0.00 0.00 0.00 74 1009.1
20260509124550 27 223 0.0 1.6 0.00 0.00 0.00 74 1009.2
20260509123052 27 223 0.0 1.6 0.00 0.00 0.00 75 1009.0
20260509121552 27 223 0.0 1.6 0.00 0.00 0.00 74 1009.0
20260509120049 27 222 0.0 0.0 0.00 0.00 0.00 73 1008.8
20260509114548 27 222 0.0 1.6 0.00 0.00 0.00 73 1008.6
20260509113052 27 222 0.0 0.0 0.00 0.00 0.00 72 1008.5
20260509111548 27 222 3.2 6.4 0.00 0.00 0.00 71 1008.7
20260509110047 28 188 1.6 4.8 0.00 0.00 0.00 72 1008.6
20260509104547 28 115 1.6 4.8 0.00 0.00 0.00 73 1008.1
20260509103050 28 117 0.0 3.2 0.00 0.00 0.00 72 1007.6
20260509101551 28 117 1.6 4.8 0.00 0.00 0.00 71 1007.3
20260509100045 29 135 0.0 3.2 0.00 0.00 0.00 67 1007.6
20260509094545 29 134 0.0 3.2 0.00 0.00 0.00 66 1007.8
20260509093044 29 204 3.2 9.7 0.00 0.00 0.00 66 1007.3
20260509091545 29 198 0.0 11.3 0.00 0.00 0.00 66 1007.5
20260509090043 30 155 1.6 11.3 0.00 0.00 0.00 63 1007.3
20260509084544 30 30 0.0 3.2 0.00 0.00 0.00 65 1006.8
20260509083047 30 24 0.0 6.4 0.00 0.00 0.00 65 1006.5
20260509081548 31 63 0.0 8.0 0.00 0.00 0.00 62 1006.5
20260509080040 31 19 3.2 12.9 0.00 0.00 0.00 61 1006.1
20260509074552 31 59 4.8 14.5 0.00 0.00 0.00 60 1005.7
20260509073040 32 101 1.6 17.7 0.00 0.00 0.00 60 1005.3
20260509071539 32 107 3.2 14.5 0.00 0.00 0.00 60 1005.5
20260509070039 32 97 1.6 8.0 0.00 0.00 0.00 60 1005.5
20260509064550 32 61 3.2 14.5 0.00 0.00 0.00 60 1005.6
20260509063044 33 117 9.7 19.3 0.00 0.00 0.00 58 1005.5
20260509061532 33 121 3.2 11.3 0.00 0.00 0.00 59 1005.7
20260509060032 32 117 4.8 16.1 0.00 0.00 0.00 60 1005.9
20260509054535 33 92 1.6 6.4 0.00 0.00 0.00 52 1006.0
20260509053031 33 53 1.6 9.7 0.00 0.00 0.00 52 1005.9
20260509051534 33 355 1.6 12.9 0.00 0.00 0.00 51 1006.2
20260509050028 34 294 1.6 8.0 0.00 0.00 0.00 51 1006.6
20260509044521 34 350 1.6 6.4 0.00 0.00 0.00 52 1006.8
20260509043019 33 269 0.0 9.7 0.00 0.00 0.00 51 1007.1
20260509041516 33 57 3.2 9.7 0.00 0.00 0.00 55 1007.7
20260509040015 32 63 1.6 8.0 0.00 0.00 0.00 58 1008.0
20260509034535 32 274 0.0 9.7 0.00 0.00 0.00 57 1008.1
20260509033014 32 89 1.6 9.7 0.00 0.00 0.00 56 1008.2
20260509031514 33 101 3.2 6.4 0.00 0.00 0.00 57 1008.4
20260509030011 32 5 1.6 14.5 0.00 0.00 0.00 55 1008.5
20260509024510 32 331 3.2 9.7 0.00 0.00 0.00 53 1008.7
20260509023008 32 54 1.6 9.7 0.00 0.00 0.00 54 1008.9
20260509021508 32 45 0.0 12.9 0.00 0.00 0.00 57 1008.9
20260509020007 32 355 1.6 8.0 0.00 0.00 0.00 58 1009.1
20260509014506 32 360 0.0 4.8 0.00 0.00 0.00 57 1009.2
20260509013005 31 78 0.0 3.2 0.00 0.00 0.00 58 1009.4
20260509011505 32 19 1.6 6.4 0.00 0.00 0.00 59 1009.5
20260509010104 31 49 0.0 3.2 0.00 0.00 0.00 60 1009.7
20260509004620 30 29 0.0 4.8 0.00 0.00 0.00 65 1010.0
20260509003054 30 63 0.0 4.8 0.00 0.00 0.00 66 1010.2
20260509001553 29 49 1.6 4.8 0.00 0.00 0.00 69 1010.2
20260509000049 29 77 0.0 4.8 0.00 0.00 0.00 69 1010.3
20260508234547 29 113 0.0 3.2 0.00 0.00 0.00 70 1010.2
20260508233045 28 121 0.0 6.4 0.00 0.00 0.00 70 1010.0
20260508231542 28 68 0.0 3.2 0.00 0.00 0.00 73 1009.8
20260508230039 27 65 1.6 4.8 0.00 0.05 0.00 74 1009.7
20260508224547 27 5 0.0 1.6 0.00 0.05 0.00 75 1009.7
20260508223044 26 5 0.0 0.0 0.00 0.05 0.00 77 1009.6
20260508221530 26 5 0.0 0.0 0.00 0.05 0.00 78 1009.5
20260508220031 26 5 0.0 0.0 0.00 0.15 0.00 78 1008.9
20260508214549 25 5 0.0 0.0 0.00 0.15 0.00 78 1008.8
20260508213027 25 5 0.0 0.0 0.00 0.15 0.00 78 1008.8
20260508211527 25 5 0.0 0.0 0.00 0.15 0.00 78 1008.7
20260508210026 25 5 0.0 0.0 0.00 0.30 0.00 78 1008.4
20260508204525 25 5 0.0 0.0 0.00 0.30 0.00 78 1008.3
20260508203024 25 5 0.0 0.0 0.00 0.30 0.00 78 1008.0
20260508201522 25 5 0.0 3.2 0.00 0.30 0.00 78 1007.9
20260508200022 25 34 0.0 1.6 0.00 0.56 0.00 78 1008.1
20260508194519 25 37 0.0 0.0 0.00 0.56 0.00 78 1008.3
20260508193018 26 37 0.0 4.8 0.00 0.56 0.00 77 1008.6
20260508191518 26 34 0.0 0.0 0.00 0.56 0.00 77 1008.6
20260508190035 26 34 0.0 0.0 0.00 0.76 0.00 77 1008.2
20260508184527 25 34 0.0 0.0 0.00 0.76 0.00 77 1008.4
20260508183027 26 34 0.0 0.0 0.00 0.76 0.00 77 1008.3
20260508181512 26 34 0.0 0.0 0.00 0.76 0.00 77 1008.5
20260508180012 26 34 0.0 0.0 0.00 0.79 0.00 77 1008.6
20260508174510 26 34 0.0 1.6 0.00 0.79 0.00 77 1008.7
20260508173012 26 34 0.0 0.0 0.00 0.79 0.00 77 1008.8
20260508171509 26 34 0.0 1.6 0.00 0.79 0.00 77 1009.0
20260508170010 26 33 0.0 0.0 0.00 0.81 0.00 77 1009.1
20260508164518 26 33 0.0 0.0 0.00 0.81 0.00 77 1009.2
20260508163012 26 33 0.0 0.0 0.00 0.81 0.00 76 1009.4
20260508161506 26 33 0.0 0.0 0.00 0.81 0.00 76 1009.6
20260508160100 26 34 0.0 0.0 0.00 0.84 0.81 75 1009.6
20260508154601 26 33 0.0 4.8 0.00 0.84 0.81 75 1009.6
20260508153100 26 41 1.6 4.8 0.00 0.84 0.81 74 1009.8
20260508151602 26 42 1.6 6.4 0.00 0.84 0.81 74 1010.0
20260508150059 26 355 0.0 1.6 0.00 0.86 0.81 75 1009.9
20260508144607 26 355 0.0 1.6 0.00 0.86 0.81 75 1009.8
20260508143101 26 355 0.0 3.2 0.00 0.86 0.81 76 1009.8
20260508141607 26 355 0.0 0.0 0.00 0.86 0.81 76 1010.1
20260508140057 26 355 0.0 0.0 0.00 0.86 0.81 76 1010.2